EZY98KH LJLJ-EGKK

Flight info

Callsign EZY98KH
Flight time 1h 50m
Altitude 38000
Route GIMIX DCT NANIT DCT ERKIR DCT KPT L856 RAVED Y112 HOC DCT LUL DCT RLP DCT ROTSI DCT KOTUN DCT NINAL DCT KESAX DCT KUNAV
Aircraft A320/M-L/LB1

Departure

Time 2026-04-14 11:34
Airport Ljubljana Jože Pučnik Airport (LJLJ)

Arrival

Time 2026-04-14 13:24
Airport London Gatwick Airport (EGKK)
Time Latitude Longitude Altitude Speed Heading
2026-04-14 11:25 46.23003 14.45469 1259 ft 0 kts 37°
2026-04-14 11:25 46.23002 14.45467 1259 ft 2 kts 36°
2026-04-14 11:26 46.22981 14.45447 1268 ft 4 kts 26°
2026-04-14 11:26 46.22956 14.45435 1262 ft 4 kts 358°
2026-04-14 11:26 46.22936 14.45445 1262 ft 1 kts 306°
2026-04-14 11:26 46.22936 14.45446 1262 ft 0 kts 305°
2026-04-14 11:28 46.22938 14.45442 1263 ft 4 kts 305°
2026-04-14 11:28 46.22963 14.45391 1260 ft 5 kts 306°
2026-04-14 11:29 46.22988 14.45342 1269 ft 10 kts 306°
2026-04-14 11:29 46.23025 14.45269 1268 ft 10 kts 307°
2026-04-14 11:29 46.23081 14.45161 1268 ft 14 kts 306°
2026-04-14 11:29 46.23130 14.45066 1267 ft 10 kts 307°
2026-04-14 11:30 46.23168 14.44981 1269 ft 10 kts 278°
2026-04-14 11:30 46.23121 14.44911 1274 ft 14 kts 216°
2026-04-14 11:30 46.23099 14.44802 1273 ft 12 kts 305°
2026-04-14 11:30 46.23159 14.44682 1274 ft 18 kts 306°
2026-04-14 11:31 46.23232 14.44538 1277 ft 18 kts 306°
2026-04-14 11:31 46.23303 14.44399 1280 ft 17 kts 306°
2026-04-14 11:31 46.23370 14.44268 1284 ft 15 kts 306°
2026-04-14 11:31 46.23397 14.44138 1286 ft 13 kts 250°
2026-04-14 11:32 46.23323 14.44078 1287 ft 13 kts 182°
2026-04-14 11:32 46.23245 14.44088 1286 ft 7 kts 186°
2026-04-14 11:32 46.23215 14.44111 1288 ft 0 kts 126°
2026-04-14 11:33 46.23062 14.44412 1277 ft 77 kts 126°
2026-04-14 11:33 46.22615 14.45287 1261 ft 138 kts 127°
2026-04-14 11:33 46.21958 14.46572 1442 ft 168 kts 126°
2026-04-14 11:34 46.20309 14.48644 3027 ft 156 kts 166°
2026-04-14 11:34 46.19213 14.48577 3519 ft 167 kts 197°
2026-04-14 11:34 46.18255 14.47487 3787 ft 191 kts 242°
2026-04-14 11:34 46.18092 14.45540 4063 ft 209 kts 289°
2026-04-14 11:35 46.18771 14.43587 4383 ft 227 kts 304°
2026-04-14 11:35 46.19686 14.41619 4772 ft 246 kts 308°
2026-04-14 11:35 46.20698 14.39574 5486 ft 253 kts 307°
2026-04-14 11:35 46.21728 14.37490 6283 ft 257 kts 307°
2026-04-14 11:36 46.22794 14.35303 6804 ft 276 kts 306°
2026-04-14 11:36 46.23908 14.32979 7554 ft 285 kts 305°
2026-04-14 11:36 46.25029 14.30603 8443 ft 289 kts 304°
2026-04-14 11:36 46.26163 14.28181 9281 ft 292 kts 303°
2026-04-14 11:37 46.27306 14.25724 10163 ft 297 kts 302°
2026-04-14 11:37 46.28494 14.23156 10514 ft 320 kts 302°
2026-04-14 11:37 46.29773 14.20393 10853 ft 339 kts 302°
2026-04-14 11:37 46.31103 14.17520 11494 ft 347 kts 303°
2026-04-14 11:38 46.32458 14.14597 12205 ft 353 kts 302°
2026-04-14 11:38 46.33831 14.11632 12982 ft 356 kts 302°
2026-04-14 11:38 46.35217 14.08633 13789 ft 361 kts 303°
2026-04-14 11:38 46.36603 14.05627 14448 ft 366 kts 303°
2026-04-14 11:39 46.38023 14.02548 15099 ft 370 kts 303°
2026-04-14 11:39 46.39460 13.99433 15734 ft 374 kts 303°
2026-04-14 11:39 46.40911 13.96282 16379 ft 378 kts 302°
2026-04-14 11:39 46.42376 13.93097 17031 ft 381 kts 302°
2026-04-14 11:40 46.43854 13.89879 17666 ft 386 kts 302°
2026-04-14 11:40 46.45349 13.86618 18313 ft 390 kts 302°
2026-04-14 11:40 46.46858 13.83327 18870 ft 394 kts 302°
2026-04-14 11:40 46.48375 13.80008 19450 ft 396 kts 302°
2026-04-14 11:41 46.49906 13.76658 20038 ft 400 kts 302°
2026-04-14 11:41 46.51449 13.73282 20660 ft 403 kts 302°
2026-04-14 11:41 46.53181 13.70054 21223 ft 409 kts 311°
2026-04-14 11:41 46.55142 13.67051 21830 ft 410 kts 312°
2026-04-14 11:42 46.57113 13.64034 22412 ft 412 kts 312°
2026-04-14 11:42 46.59093 13.60998 22979 ft 415 kts 312°
2026-04-14 11:42 46.61080 13.57942 23524 ft 417 kts 312°
2026-04-14 11:42 46.63077 13.54858 23974 ft 420 kts 312°
2026-04-14 11:43 46.65082 13.51752 24417 ft 422 kts 312°
2026-04-14 11:43 46.67101 13.48628 24849 ft 425 kts 312°
2026-04-14 11:43 46.69137 13.45484 25249 ft 427 kts 312°
2026-04-14 11:43 46.71186 13.42320 25648 ft 431 kts 312°
2026-04-14 11:44 46.73244 13.39133 26051 ft 433 kts 312°
2026-04-14 11:44 46.75285 13.35967 26430 ft 435 kts 312°
2026-04-14 11:44 46.77359 13.32744 26836 ft 437 kts 312°
2026-04-14 11:44 46.79443 13.29500 27233 ft 439 kts 312°
2026-04-14 11:45 46.81536 13.26236 27608 ft 441 kts 312°
2026-04-14 11:45 46.83634 13.22962 27971 ft 443 kts 312°
2026-04-14 11:45 46.85744 13.19667 28311 ft 445 kts 312°
2026-04-14 11:45 46.87861 13.16356 28670 ft 447 kts 311°
2026-04-14 11:46 46.89985 13.13028 29021 ft 449 kts 311°
2026-04-14 11:46 46.92117 13.09686 29359 ft 451 kts 311°
2026-04-14 11:46 46.94262 13.06326 29696 ft 452 kts 311°
2026-04-14 11:46 46.95713 13.04050 29920 ft 453 kts 311°
2026-04-14 11:47 46.97870 13.00661 30210 ft 455 kts 311°
2026-04-14 11:47 47.00030 12.97264 30459 ft 456 kts 311°
2026-04-14 11:47 47.02164 12.93897 30709 ft 458 kts 311°
2026-04-14 11:47 47.04332 12.90466 30945 ft 459 kts 311°
2026-04-14 11:48 47.06508 12.87017 31211 ft 460 kts 311°
2026-04-14 11:48 47.08680 12.83577 31550 ft 459 kts 311°
2026-04-14 11:48 47.10843 12.80156 31908 ft 456 kts 311°
2026-04-14 11:48 47.13002 12.76743 32220 ft 455 kts 310°
2026-04-14 11:49 47.15154 12.73335 32550 ft 455 kts 310°
2026-04-14 11:49 47.17302 12.69928 32841 ft 454 kts 310°
2026-04-14 11:49 47.19445 12.66520 33168 ft 454 kts 310°
2026-04-14 11:49 47.21581 12.63109 33497 ft 453 kts 310°
2026-04-14 11:50 47.23711 12.59701 33828 ft 452 kts 310°
2026-04-14 11:50 47.25843 12.56285 34141 ft 452 kts 309°
2026-04-14 11:50 47.27973 12.52870 34401 ft 451 kts 310°
2026-04-14 11:51 47.32219 12.46059 34990 ft 450 kts 310°
2026-04-14 11:51 47.34335 12.42659 35249 ft 450 kts 310°
2026-04-14 11:51 47.36445 12.39264 35541 ft 448 kts 310°
2026-04-14 11:51 47.38540 12.35864 35784 ft 447 kts 307°
2026-04-14 11:52 47.40382 12.32194 36014 ft 444 kts 300°
2026-04-14 11:52 47.42038 12.28336 36206 ft 445 kts 300°
2026-04-14 11:52 47.43691 12.24479 36398 ft 445 kts 300°
2026-04-14 11:52 47.45325 12.20668 36591 ft 445 kts 300°
2026-04-14 11:53 47.46982 12.16802 36818 ft 445 kts 300°
2026-04-14 11:53 47.48639 12.12931 36994 ft 446 kts 300°
2026-04-14 11:53 47.50294 12.09055 37203 ft 446 kts 300°
2026-04-14 11:53 47.51966 12.05123 37384 ft 446 kts 299°
2026-04-14 11:54 47.53358 12.01092 37564 ft 444 kts 290°
2026-04-14 11:54 47.54313 11.96758 37736 ft 441 kts 281°
2026-04-14 11:54 47.54921 11.92303 37896 ft 442 kts 279°
2026-04-14 11:54 47.55508 11.87838 38078 ft 442 kts 279°
2026-04-14 11:55 47.56682 11.78878 38147 ft 443 kts 279°
2026-04-14 11:55 47.57849 11.69953 38150 ft 445 kts 279°
2026-04-14 11:56 47.59020 11.60948 38150 ft 445 kts 279°
2026-04-14 11:56 47.60178 11.51927 38149 ft 445 kts 279°
2026-04-14 11:57 47.61337 11.42903 38156 ft 446 kts 279°
2026-04-14 11:57 47.62491 11.33874 38151 ft 446 kts 279°
2026-04-14 11:58 47.63633 11.24826 38139 ft 446 kts 279°
2026-04-14 11:58 47.64766 11.15779 38141 ft 446 kts 279°
2026-04-14 11:59 47.65894 11.06715 38136 ft 447 kts 279°
2026-04-14 11:59 47.67020 10.97650 38139 ft 447 kts 279°
2026-04-14 12:00 47.68138 10.88581 38144 ft 446 kts 279°
2026-04-14 12:00 47.69247 10.79527 38151 ft 446 kts 279°
2026-04-14 12:01 47.70341 10.70536 38151 ft 445 kts 279°
2026-04-14 12:01 47.71430 10.61467 38151 ft 445 kts 279°
2026-04-14 12:02 47.72508 10.52424 38156 ft 444 kts 280°
2026-04-14 12:02 47.73581 10.43372 38166 ft 444 kts 280°
2026-04-14 12:03 47.74500 10.34334 38165 ft 442 kts 272°
2026-04-14 12:03 47.74368 10.25192 38163 ft 442 kts 268°
2026-04-14 12:04 47.74152 10.16130 38160 ft 442 kts 268°
2026-04-14 12:04 47.73934 10.07005 38149 ft 442 kts 268°
2026-04-14 12:05 47.73710 9.97865 38147 ft 443 kts 268°
2026-04-14 12:05 47.73489 9.88714 38150 ft 443 kts 268°
2026-04-14 12:06 47.73257 9.79561 38161 ft 444 kts 268°
2026-04-14 12:06 47.73009 9.70397 38160 ft 444 kts 268°
2026-04-14 12:07 47.72218 9.61302 38148 ft 445 kts 260°
2026-04-14 12:07 47.71107 9.52247 38148 ft 446 kts 260°
2026-04-14 12:08 47.69996 9.43170 38153 ft 447 kts 260°
2026-04-14 12:08 47.68864 9.34087 38144 ft 447 kts 260°
2026-04-14 12:09 47.67732 9.25007 38142 ft 447 kts 260°
2026-04-14 12:09 47.66587 9.15938 38154 ft 447 kts 260°
2026-04-14 12:10 47.65431 9.06877 38162 ft 447 kts 260°
2026-04-14 12:10 47.64280 8.97872 38156 ft 447 kts 260°
2026-04-14 12:11 47.63117 8.88816 38161 ft 447 kts 260°
2026-04-14 12:11 47.61951 8.79755 38174 ft 447 kts 260°
2026-04-14 12:12 47.60768 8.70702 38182 ft 447 kts 260°
2026-04-14 12:12 47.59578 8.61656 38190 ft 447 kts 260°
2026-04-14 12:13 47.58391 8.52617 38196 ft 447 kts 260°
2026-04-14 12:13 47.57188 8.43593 38172 ft 447 kts 260°
2026-04-14 12:14 47.55984 8.34570 38168 ft 447 kts 260°
2026-04-14 12:14 47.54778 8.25546 38167 ft 447 kts 260°
2026-04-14 12:15 47.53559 8.16521 38167 ft 447 kts 260°
2026-04-14 12:15 47.52327 8.07499 38169 ft 447 kts 260°
2026-04-14 12:16 47.51094 7.98485 38171 ft 447 kts 260°
2026-04-14 12:16 47.49848 7.89464 38176 ft 447 kts 260°
2026-04-14 12:17 47.48606 7.80513 38181 ft 447 kts 260°
2026-04-14 12:17 47.47369 7.71499 38183 ft 447 kts 263°
2026-04-14 12:18 47.47396 7.62403 38188 ft 442 kts 282°
2026-04-14 12:18 47.48837 7.53586 38187 ft 441 kts 285°
2026-04-14 12:19 47.50317 7.44770 38172 ft 441 kts 285°
2026-04-14 12:19 47.51775 7.35948 38178 ft 442 kts 285°
2026-04-14 12:20 47.53227 7.27116 38182 ft 442 kts 285°
2026-04-14 12:20 47.54678 7.18285 38184 ft 442 kts 285°
2026-04-14 12:21 47.56126 7.09453 38185 ft 441 kts 285°
2026-04-14 12:21 47.57560 7.00615 38195 ft 441 kts 285°
2026-04-14 12:22 47.58984 6.91789 38199 ft 440 kts 285°
2026-04-14 12:22 47.60402 6.82963 38203 ft 440 kts 285°
2026-04-14 12:23 47.61808 6.74134 38205 ft 440 kts 285°
2026-04-14 12:23 47.63198 6.65372 38200 ft 439 kts 285°
2026-04-14 12:24 47.64602 6.56578 38198 ft 438 kts 285°
2026-04-14 12:24 47.65989 6.47780 38188 ft 437 kts 285°
2026-04-14 12:25 47.67362 6.38992 38188 ft 437 kts 285°
2026-04-14 12:25 47.68729 6.30198 38175 ft 437 kts 286°
2026-04-14 12:26 47.70357 6.21545 38191 ft 434 kts 290°
2026-04-14 12:26 47.72262 6.13052 38186 ft 433 kts 291°
2026-04-14 12:27 47.74155 6.04560 38203 ft 433 kts 290°
2026-04-14 12:27 47.75963 5.96019 38186 ft 433 kts 290°
2026-04-14 12:28 47.77728 5.87519 38171 ft 433 kts 290°
2026-04-14 12:28 47.79516 5.78961 38182 ft 433 kts 290°
2026-04-14 12:29 47.81291 5.70414 38180 ft 433 kts 290°
2026-04-14 12:29 47.83059 5.61857 38184 ft 432 kts 290°
2026-04-14 12:30 47.84825 5.53298 38192 ft 432 kts 290°
2026-04-14 12:30 47.86295 5.46179 38165 ft 432 kts 290°
2026-04-14 12:31 47.88335 5.36220 38172 ft 432 kts 290°
2026-04-14 12:31 47.90194 5.27713 38191 ft 429 kts 297°
2026-04-14 12:32 47.92753 5.21457 38188 ft 423 kts 313°
2026-04-14 12:32 47.96696 5.14966 38178 ft 422 kts 314°
2026-04-14 12:33 48.00648 5.08460 38157 ft 422 kts 314°
2026-04-14 12:33 48.04584 5.01941 38168 ft 422 kts 314°
2026-04-14 12:34 48.08517 4.95410 38188 ft 423 kts 314°
2026-04-14 12:34 48.12452 4.88872 38195 ft 423 kts 314°
2026-04-14 12:35 48.16379 4.82321 38193 ft 422 kts 314°
2026-04-14 12:35 48.20309 4.75766 38198 ft 423 kts 314°
2026-04-14 12:36 48.24234 4.69199 38182 ft 422 kts 314°
2026-04-14 12:36 48.28120 4.62675 38207 ft 421 kts 314°
2026-04-14 12:37 48.32021 4.56115 38215 ft 421 kts 314°
2026-04-14 12:37 48.35910 4.49553 38225 ft 420 kts 314°
2026-04-14 12:38 48.41740 4.39691 38221 ft 420 kts 314°
2026-04-14 12:39 48.45620 4.33108 38219 ft 420 kts 314°
2026-04-14 12:39 48.49494 4.26524 38213 ft 418 kts 314°
2026-04-14 12:40 48.53323 4.19991 38232 ft 417 kts 314°
2026-04-14 12:40 48.57157 4.13434 38235 ft 416 kts 314°
2026-04-14 12:41 48.60979 4.06881 38233 ft 415 kts 314°
2026-04-14 12:41 48.64794 4.00331 38236 ft 415 kts 314°
2026-04-14 12:42 48.68600 3.93767 38229 ft 414 kts 314°
2026-04-14 12:42 48.72401 3.87205 38227 ft 414 kts 314°
2026-04-14 12:43 48.76393 3.80936 38220 ft 413 kts 318°
2026-04-14 12:43 48.80553 3.74943 38218 ft 412 kts 319°
2026-04-14 12:44 48.84697 3.68919 38216 ft 412 kts 318°
2026-04-14 12:44 48.88767 3.62861 38214 ft 412 kts 317°
2026-04-14 12:45 48.94882 3.53641 38210 ft 412 kts 317°
2026-04-14 12:45 48.98954 3.47506 38212 ft 411 kts 317°
2026-04-14 12:46 49.03011 3.41392 38234 ft 409 kts 317°
2026-04-14 12:46 49.07053 3.35292 38231 ft 408 kts 317°
2026-04-14 12:47 49.11087 3.29193 38223 ft 407 kts 317°
2026-04-14 12:47 49.15097 3.23106 38224 ft 406 kts 317°
2026-04-14 12:48 49.19073 3.17050 38218 ft 406 kts 317°
2026-04-14 12:48 49.23070 3.10947 38216 ft 405 kts 317°
2026-04-14 12:49 49.27045 3.04859 38233 ft 403 kts 317°
2026-04-14 12:49 49.31004 2.98797 38236 ft 401 kts 317°
2026-04-14 12:50 49.36908 2.89717 38231 ft 400 kts 317°
2026-04-14 12:51 49.40823 2.83668 38231 ft 399 kts 317°
2026-04-14 12:51 49.44734 2.77616 38223 ft 399 kts 317°
2026-04-14 12:52 49.48638 2.71562 38221 ft 398 kts 317°
2026-04-14 12:52 49.52538 2.65510 38214 ft 397 kts 317°
2026-04-14 12:53 49.56402 2.59490 38226 ft 394 kts 317°
2026-04-14 12:53 49.60243 2.53489 38225 ft 392 kts 316°
2026-04-14 12:54 49.63901 2.47247 38213 ft 392 kts 313°
2026-04-14 12:54 49.67385 2.40762 38211 ft 392 kts 312°
2026-04-14 12:55 49.70855 2.34280 38204 ft 391 kts 313°
2026-04-14 12:55 49.74360 2.27853 38212 ft 391 kts 313°
2026-04-14 12:56 49.77851 2.21496 38208 ft 388 kts 312°
2026-04-14 12:56 49.81336 2.15140 38209 ft 386 kts 312°
2026-04-14 12:57 49.84785 2.08803 38210 ft 384 kts 312°
2026-04-14 12:57 49.88212 2.02460 38210 ft 383 kts 312°
2026-04-14 12:58 49.91634 1.96135 38198 ft 382 kts 312°
2026-04-14 12:58 49.95048 1.89824 38195 ft 381 kts 312°
2026-04-14 12:59 49.98430 1.83549 38199 ft 381 kts 312°
2026-04-14 12:59 50.00129 1.80393 38054 ft 381 kts 311°
2026-04-14 12:59 50.01840 1.77213 37040 ft 386 kts 312°
2026-04-14 12:59 50.03587 1.73956 35952 ft 392 kts 313°
2026-04-14 13:00 50.05331 1.70700 34930 ft 396 kts 313°
2026-04-14 13:00 50.07155 1.67422 33878 ft 398 kts 318°
2026-04-14 13:00 50.09193 1.64559 32811 ft 399 kts 321°
2026-04-14 13:00 50.11277 1.61737 32229 ft 392 kts 321°
2026-04-14 13:01 50.13330 1.58950 31609 ft 387 kts 320°
2026-04-14 13:01 50.15329 1.56231 31001 ft 383 kts 320°
2026-04-14 13:01 50.17333 1.53504 30407 ft 379 kts 319°
2026-04-14 13:01 50.19316 1.50804 29766 ft 376 kts 319°
2026-04-14 13:02 50.21279 1.48134 29179 ft 371 kts 319°
2026-04-14 13:02 50.23213 1.45506 28621 ft 366 kts 319°
2026-04-14 13:02 50.25110 1.42924 28065 ft 362 kts 319°
2026-04-14 13:02 50.26984 1.40359 27531 ft 358 kts 319°
2026-04-14 13:03 50.28856 1.37787 26977 ft 355 kts 319°
2026-04-14 13:03 50.30705 1.35244 26467 ft 352 kts 319°
2026-04-14 13:03 50.32538 1.32723 25953 ft 350 kts 319°
2026-04-14 13:03 50.34363 1.30214 25468 ft 348 kts 319°
2026-04-14 13:04 50.36173 1.27723 24980 ft 346 kts 319°
2026-04-14 13:04 50.37977 1.25241 24504 ft 343 kts 319°
2026-04-14 13:04 50.39767 1.22777 24038 ft 341 kts 319°
2026-04-14 13:04 50.41533 1.20345 23552 ft 339 kts 318°
2026-04-14 13:05 50.43303 1.17907 23055 ft 336 kts 318°
2026-04-14 13:05 50.45039 1.15512 22609 ft 332 kts 318°
2026-04-14 13:05 50.46767 1.13127 22163 ft 329 kts 318°
2026-04-14 13:05 50.48478 1.10761 21711 ft 327 kts 318°
2026-04-14 13:06 50.50179 1.08396 21263 ft 325 kts 318°
2026-04-14 13:06 50.51833 1.05998 20810 ft 323 kts 313°
2026-04-14 13:06 50.53366 1.03416 20359 ft 322 kts 313°
2026-04-14 13:06 50.54879 1.00869 19913 ft 322 kts 313°
2026-04-14 13:07 50.56410 0.98290 19456 ft 322 kts 312°
2026-04-14 13:07 50.57936 0.95718 18992 ft 322 kts 312°
2026-04-14 13:07 50.59494 0.93089 18117 ft 335 kts 312°
2026-04-14 13:07 50.61101 0.90375 17436 ft 339 kts 311°
2026-04-14 13:08 50.62692 0.87682 16921 ft 338 kts 311°
2026-04-14 13:08 50.64293 0.84967 16439 ft 337 kts 311°
2026-04-14 13:08 50.65892 0.82256 16006 ft 335 kts 311°
2026-04-14 13:08 50.67471 0.79571 15574 ft 333 kts 310°
2026-04-14 13:09 50.68971 0.76853 15141 ft 330 kts 307°
2026-04-14 13:09 50.70423 0.74041 14699 ft 328 kts 306°
2026-04-14 13:09 50.71839 0.71207 14266 ft 327 kts 306°
2026-04-14 13:09 50.73241 0.68384 13825 ft 326 kts 306°
2026-04-14 13:10 50.74643 0.65574 13350 ft 324 kts 306°
2026-04-14 13:10 50.76023 0.62833 12897 ft 322 kts 306°
2026-04-14 13:10 50.77418 0.60078 12433 ft 320 kts 306°
2026-04-14 13:10 50.78799 0.57362 12126 ft 309 kts 306°
2026-04-14 13:11 50.80110 0.54795 11794 ft 292 kts 306°
2026-04-14 13:11 50.81371 0.52323 11203 ft 286 kts 306°
2026-04-14 13:11 50.82615 0.49873 10579 ft 287 kts 306°
2026-04-14 13:11 50.83860 0.47408 10217 ft 285 kts 307°
2026-04-14 13:12 50.85097 0.44957 9784 ft 285 kts 306°
2026-04-14 13:12 50.86330 0.42515 9358 ft 284 kts 306°
2026-04-14 13:12 50.87558 0.40081 8967 ft 282 kts 306°
2026-04-14 13:12 50.88781 0.37665 8595 ft 279 kts 304°
2026-04-14 13:13 50.89975 0.35296 8218 ft 277 kts 304°
2026-04-14 13:13 50.91166 0.32920 8086 ft 273 kts 304°
2026-04-14 13:13 50.92314 0.30630 8080 ft 256 kts 305°
2026-04-14 13:13 50.93400 0.28477 8081 ft 246 kts 305°
2026-04-14 13:14 50.94536 0.26356 8087 ft 266 kts 309°
2026-04-14 13:14 50.95838 0.24293 8080 ft 264 kts 311°
2026-04-14 13:14 50.97126 0.22316 7919 ft 253 kts 312°
2026-04-14 13:14 50.98375 0.20389 7629 ft 248 kts 312°
2026-04-14 13:15 50.99638 0.18589 7177 ft 244 kts 324°
2026-04-14 13:15 51.01262 0.17798 6667 ft 251 kts 357°
2026-04-14 13:15 51.02961 0.18428 6334 ft 255 kts 22°
2026-04-14 13:15 51.04570 0.19673 5936 ft 257 kts 26°
2026-04-14 13:16 51.06167 0.20993 5585 ft 257 kts 26°
2026-04-14 13:16 51.07744 0.22295 5326 ft 253 kts 26°
2026-04-14 13:16 51.09262 0.23541 5186 ft 237 kts 26°
2026-04-14 13:16 51.10668 0.24695 5079 ft 218 kts 26°
2026-04-14 13:17 51.12000 0.25719 4616 ft 211 kts 16°
2026-04-14 13:17 51.13419 0.25709 4202 ft 202 kts 336°
2026-04-14 13:17 51.14652 0.24706 3791 ft 198 kts 323°
2026-04-14 13:17 51.15796 0.23556 3585 ft 190 kts 321°
2026-04-14 13:18 51.16525 0.22803 3388 ft 189 kts 321°
2026-04-14 13:18 51.17619 0.20794 2868 ft 182 kts 290°
2026-04-14 13:18 51.18156 0.18936 2883 ft 187 kts 287°
2026-04-14 13:18 51.18669 0.17016 2887 ft 188 kts 287°
2026-04-14 13:19 51.18998 0.15746 2889 ft 185 kts 285°
2026-04-14 13:19 51.19228 0.13861 2897 ft 166 kts 262°
2026-04-14 13:19 51.19048 0.12110 2907 ft 158 kts 251°
2026-04-14 13:19 51.18819 0.10412 2911 ft 155 kts 251°
2026-04-14 13:20 51.18592 0.08727 2921 ft 155 kts 251°
2026-04-14 13:20 51.18364 0.07041 2928 ft 156 kts 252°
2026-04-14 13:20 51.18136 0.05352 2936 ft 155 kts 251°
2026-04-14 13:20 51.17908 0.03667 2780 ft 156 kts 252°
2026-04-14 13:21 51.17679 0.01976 2588 ft 155 kts 251°
2026-04-14 13:21 51.17452 0.00296 2399 ft 155 kts 251°
2026-04-14 13:21 51.17224 -0.01380 2263 ft 154 kts 250°
2026-04-14 13:21 51.17000 -0.03032 2055 ft 155 kts 250°
2026-04-14 13:22 51.16771 -0.04711 1841 ft 156 kts 251°
2026-04-14 13:22 51.16541 -0.06400 1628 ft 156 kts 251°
2026-04-14 13:22 51.16310 -0.08100 1409 ft 153 kts 250°
2026-04-14 13:22 51.16095 -0.09714 1198 ft 144 kts 249°
2026-04-14 13:23 51.15895 -0.11240 974 ft 139 kts 250°
2026-04-14 13:23 51.15697 -0.12687 813 ft 130 kts 249°
2026-04-14 13:23 51.15496 -0.14085 599 ft 130 kts 248°
2026-04-14 13:23 51.15301 -0.15514 433 ft 133 kts 252°
2026-04-14 13:24 51.15101 -0.16955 286 ft 133 kts 253°
2026-04-14 13:24 51.14796 -0.19148 213 ft 43 kts 257°
2026-04-14 13:24 51.14775 -0.19454 206 ft 20 kts 276°
2026-04-14 13:25 51.14800 -0.19640 214 ft 16 kts 282°
2026-04-14 13:25 51.14823 -0.19795 208 ft 12 kts 283°
2026-04-14 13:26 51.14899 -0.19748 211 ft 8 kts 76°
2026-04-14 13:26 51.14909 -0.19673 208 ft 6 kts 78°
2026-04-14 13:26 51.14918 -0.19604 208 ft 6 kts 78°
2026-04-14 13:26 51.14927 -0.19537 206 ft 6 kts 77°
2026-04-14 13:27 51.14942 -0.19427 206 ft 13 kts 77°
2026-04-14 13:27 51.14962 -0.19292 213 ft 12 kts 77°
2026-04-14 13:27 51.14980 -0.19165 205 ft 13 kts 77°
2026-04-14 13:27 51.15007 -0.18957 207 ft 22 kts 78°
2026-04-14 13:28 51.15040 -0.18716 206 ft 24 kts 77°
2026-04-14 13:28 51.15074 -0.18463 213 ft 16 kts 77°
2026-04-14 13:28 51.15100 -0.18278 202 ft 18 kts 77°
2026-04-14 13:28 51.15171 -0.18200 204 ft 13 kts 347°
2026-04-14 13:29 51.15258 -0.18231 208 ft 12 kts 348°
2026-04-14 13:29 51.15348 -0.18262 208 ft 13 kts 347°
2026-04-14 13:29 51.15431 -0.18261 207 ft 11 kts 49°
2026-04-14 13:29 51.15452 -0.18124 211 ft 18 kts 78°
2026-04-14 13:30 51.15484 -0.17900 204 ft 21 kts 77°
2026-04-14 13:30 51.15509 -0.17720 204 ft 12 kts 77°
2026-04-14 13:30 51.15524 -0.17609 209 ft 7 kts 75°
2026-04-14 13:30 51.15556 -0.17607 204 ft 6 kts 347°
2026-04-14 13:31 51.15588 -0.17619 213 ft 2 kts 347°
2026-04-14 13:31 51.15593 -0.17621 204 ft 0 kts 347°